TimeCDT,TemperatureF,Dew PointF,Humidity,Sea Level PressureIn,VisibilityMPH,Wind Direction,Wind SpeedMPH,Gust SpeedMPH,PrecipitationIn,Events,Conditions,WindDirDegrees,DateUTC
12:56 AM,66.9,61.9,84,30.18,10.0,SSE,11.5,-,N/A,,Mostly Cloudy,160,2012-10-14 05:56:00
1:56 AM,66.9,61.9,84,30.17,10.0,South,11.5,-,N/A,,Partly Cloudy,170,2012-10-14 06:56:00
2:56 AM,66.9,61.0,81,30.15,10.0,SSE,11.5,21.9,N/A,,Mostly Cloudy,160,2012-10-14 07:56:00
3:56 AM,66.9,61.0,81,30.14,10.0,SSE,11.5,-,N/A,,Overcast,150,2012-10-14 08:56:00
4:42 AM,66.2,60.8,83,30.10,10.0,SSE,8.1,-,N/A,,Overcast,160,2012-10-14 09:42:00
4:56 AM,65.8,61.9,87,30.13,10.0,SSE,9.2,-,N/A,,Overcast,150,2012-10-14 09:56:00
6:29 AM,64.4,60.8,88,30.16,10.0,South,9.2,-,N/A,,Overcast,170,2012-10-14 11:29:00
6:56 AM,64.9,61.0,87,30.19,10.0,SSE,9.2,-,N/A,,Overcast,160,2012-10-14 11:56:00
7:03 AM,64.4,60.8,88,30.15,10.0,SSE,9.2,-,N/A,,Overcast,160,2012-10-14 12:03:00
7:56 AM,63.9,61.0,90,30.22,10.0,South,8.1,-,N/A,,Overcast,180,2012-10-14 12:56:00
8:56 AM,65.8,61.9,87,30.22,10.0,South,9.2,16.1,N/A,,Overcast,180,2012-10-14 13:56:00
9:44 AM,66.2,62.6,88,30.19,4.0,South,10.4,18.4,0.00,Rain,Light Rain,170,2012-10-14 14:44:00
9:56 AM,65.8,63.9,93,30.22,9.0,South,11.5,-,0.00,,Overcast,170,2012-10-14 14:56:00
10:08 AM,68.0,64.4,88,30.18,9.0,South,10.4,18.4,0.00,Rain,Light Rain,170,2012-10-14 15:08:00
10:16 AM,68.0,64.4,88,30.18,10.0,South,15.0,-,0.00,,Mostly Cloudy,170,2012-10-14 15:16:00
10:31 AM,69.8,64.4,83,30.17,10.0,South,10.4,20.7,0.00,,Mostly Cloudy,180,2012-10-14 15:31:00
10:56 AM,70.9,63.9,78,30.19,10.0,South,16.1,21.9,0.00,,Mostly Cloudy,180,2012-10-14 15:56:00
11:56 AM,75.9,63.9,66,30.15,10.0,South,18.4,25.3,N/A,,Mostly Cloudy,180,2012-10-14 16:56:00
12:14 PM,73.4,64.4,73,30.13,3.0,SW,15.0,21.9,0.00,Rain,Heavy Rain,220,2012-10-14 17:14:00
12:16 PM,71.6,64.4,78,30.13,1.8,SSW,16.1,21.9,0.00,Rain,Heavy Rain,210,2012-10-14 17:16:00
12:24 PM,69.8,66.2,88,30.11,2.0,SSW,12.7,19.6,0.00,Rain,Light Rain,200,2012-10-14 17:24:00
12:31 PM,69.8,66.2,88,30.10,9.0,South,11.5,-,0.00,,Overcast,180,2012-10-14 17:31:00
12:56 PM,68.9,64.9,87,30.13,5.0,SSW,9.2,18.4,0.00,Rain,Rain,210,2012-10-14 17:56:00
1:09 PM,66.2,64.4,94,30.08,6.0,South,15.0,21.9,0.00,Rain-Thunderstorm,Light Thunderstorms and Rain,190,2012-10-14 18:09:00
1:17 PM,66.2,64.4,94,30.08,5.0,South,10.4,-,0.00,Rain-Thunderstorm,Light Thunderstorms and Rain,190,2012-10-14 18:17:00
1:22 PM,66.2,66.2,100,30.09,7.0,SSW,11.5,-,0.00,Rain,Light Rain,210,2012-10-14 18:22:00
1:56 PM,68.0,64.9,90,30.09,10.0,South,10.4,17.3,0.00,Rain,Light Rain,190,2012-10-14 18:56:00
2:56 PM,70.0,65.8,87,30.08,10.0,South,9.2,-,0.00,,Partly Cloudy,190,2012-10-14 19:56:00
3:56 PM,70.9,64.9,81,30.06,10.0,SSW,11.5,-,N/A,,Clear,210,2012-10-14 20:56:00
4:56 PM,70.9,65.8,84,30.05,10.0,South,8.1,-,N/A,,Mostly Cloudy,190,2012-10-14 21:56:00
5:56 PM,70.0,66.9,90,30.04,10.0,South,6.9,-,N/A,,Mostly Cloudy,190,2012-10-14 22:56:00
6:34 PM,69.8,66.2,88,30.01,10.0,WSW,10.4,-,0.00,Rain,Light Rain,250,2012-10-14 23:34:00
6:56 PM,68.9,66.9,93,30.04,10.0,SW,3.5,-,0.00,,Mostly Cloudy,220,2012-10-14 23:56:00
7:56 PM,68.9,68.0,97,30.03,7.0,SSE,9.2,-,0.00,Rain,Light Rain,160,2012-10-15 00:56:00
8:10 PM,69.8,68.0,94,29.99,7.0,South,9.2,-,0.00,Rain-Thunderstorm,Light Thunderstorms and Rain,180,2012-10-15 01:10:00
8:25 PM,69.8,68.0,94,29.99,8.0,South,8.1,-,0.00,,Mostly Cloudy,180,2012-10-15 01:25:00
8:40 PM,69.8,69.8,100,29.99,7.0,South,11.5,-,0.00,Rain-Thunderstorm,Light Thunderstorms and Rain,190,2012-10-15 01:40:00
8:56 PM,68.9,68.9,100,30.04,7.0,SW,8.1,-,0.01,Rain,Light Rain,230,2012-10-15 01:56:00
9:03 PM,69.8,69.8,100,30.00,8.0,SW,6.9,-,0.00,Rain-Thunderstorm,Light Thunderstorms and Rain,220,2012-10-15 02:03:00
9:14 PM,69.8,69.8,100,30.01,8.0,SW,8.1,-,0.00,,Mostly Cloudy,220,2012-10-15 02:14:00
9:29 PM,69.8,68.0,94,30.00,8.0,SW,10.4,-,0.00,Rain,Light Rain,230,2012-10-15 02:29:00
9:37 PM,69.8,68.0,94,30.01,10.0,SW,9.2,-,0.00,,Mostly Cloudy,220,2012-10-15 02:37:00
9:56 PM,68.9,68.0,97,30.04,9.0,SW,9.2,-,0.00,,Mostly Cloudy,220,2012-10-15 02:56:00
10:28 PM,68.0,68.0,100,30.00,10.0,WSW,5.8,-,0.00,,Scattered Clouds,240,2012-10-15 03:28:00
10:56 PM,66.9,65.8,96,30.04,10.0,WSW,3.5,-,0.00,,Partly Cloudy,240,2012-10-15 03:56:00